User: anonymous   Login
Location: Chenango Forks
(42.2242°N, 75.8278°W)
Time: 19:08:52
(UTC-04:00)
Language:

Coronas F rocket - Orbit

View from above orbital plane
View from above orbital plane
View from above satellite
View from above satellite

Ground track
Ground track

The orbit data is extracted from the following two-line orbital elements,

1 26874U 01032B   15183.16977380  .00012786  00000-0  12528-3 0  9997
2 26874 082.4677 301.4854 0012214 090.5112 269.7547 15.65820082780479
Epoch (UTC): 02 July 2015 04:04:28
Eccentricity: 0.0012214
inclination: 82.4677°
perigee height: 362 km
apogee height: 379 km
right ascension of ascending node: 301.4854°
argument of perigee: 90.5112°
revolutions per day: 15.65820082
mean anomaly at epoch: 269.7547°
orbit number at epoch: 78047

The dashed part of the orbit path shows where the satellite is in the earth's shadow,  

DLR